owner,sensor,date,latitude,longitude,vertical_datum,sea_water_speed,direction_of_sea_water_velocity,upward_sea_water_velocity,qcFlag
BP,ioos:station:wmo:42369:4,2021-09-01T00:00:00Z,27.2142,-90.2814,1343.0,9.2,297.1,-9999.0,'111111111,111111111,999999991'
BP,ioos:station:wmo:42369:4,2021-09-01T00:20:00Z,27.2142,-90.2817,1343.0,11.9,302.0,-9999.0,'111111111,111111111,999999991'
BP,ioos:station:wmo:42369:4,2021-09-01T00:40:00Z,27.2142,-90.2817,1343.0,12.5,309.2,-9999.0,'111111111,111111111,999999991'
BP,ioos:station:wmo:42369:4,2021-09-01T01:00:00Z,27.2142,-90.2817,1343.0,12.3,309.4,-9999.0,'111111111,111111111,999999991'
BP,ioos:station:wmo:42369:4,2021-09-01T01:20:00Z,27.2143,-90.2824,1343.0,10.8,309.7,-9999.0,'111111111,111111111,999999991'
BP,ioos:station:wmo:42369:4,2021-09-01T01:40:00Z,27.2143,-90.2824,1343.0,11.5,312.2,-9999.0,'111111111,111111111,999999991'
BP,ioos:station:wmo:42369:4,2021-09-01T02:00:00Z,27.2143,-90.2824,1343.0,12.1,322.4,-9999.0,'111111111,111111111,999999991'
BP,ioos:station:wmo:42369:4,2021-09-01T02:20:00Z,27.2142,-90.2826,1343.0,13.1,328.7,-9999.0,'111111111,111111111,999999991'
BP,ioos:station:wmo:42369:4,2021-09-01T02:40:00Z,27.2142,-90.2828,1343.0,13.0,336.4,-9999.0,'111111111,111111111,999999991'
BP,ioos:station:wmo:42369:4,2021-09-01T03:00:00Z,27.2142,-90.2828,1343.0,11.6,351.6,-9999.0,'111111111,111111111,999999991'
BP,ioos:station:wmo:42369:4,2021-09-01T03:20:00Z,27.2142,-90.2828,1343.0,12.3,8.9,-9999.0,'111111111,111111111,999999991'
BP,ioos:station:wmo:42369:4,2021-09-01T03:40:00Z,27.2140,-90.2832,1343.0,13.3,9.5,-9999.0,'111111111,111111111,999999991'
BP,ioos:station:wmo:42369:4,2021-09-01T04:00:00Z,27.2140,-90.2832,1343.0,15.4,10.1,-9999.0,'111111111,111111111,999999991'
BP,ioos:station:wmo:42369:4,2021-09-01T04:20:00Z,27.2140,-90.2832,1343.0,14.0,13.2,-9999.0,'111111111,111111111,999999991'
BP,ioos:station:wmo:42369:4,2021-09-01T04:40:00Z,27.2140,-90.2832,1343.0,14.5,16.8,-9999.0,'111111111,111111111,999999991'
BP,ioos:station:wmo:42369:4,2021-09-01T05:00:00Z,27.2139,-90.2838,1343.0,16.3,16.0,-9999.0,'111111111,111111111,999999991'
BP,ioos:station:wmo:42369:4,2021-09-01T05:20:00Z,27.2139,-90.2838,1343.0,15.8,16.1,-9999.0,'111111111,111111111,999999991'
BP,ioos:station:wmo:42369:4,2021-09-01T05:40:00Z,27.2139,-90.2843,1343.0,15.7,18.6,-9999.0,'111111111,111111111,999999991'
BP,ioos:station:wmo:42369:4,2021-09-01T06:00:00Z,27.2138,-90.2844,1343.0,14.5,27.1,-9999.0,'111111111,111111111,999999991'
BP,ioos:station:wmo:42369:4,2021-09-01T06:20:00Z,27.2138,-90.2844,1343.0,13.1,28.3,-9999.0,'111111111,111111111,999999991'
BP,ioos:station:wmo:42369:4,2021-09-01T06:40:00Z,27.2139,-90.2846,1343.0,11.2,20.9,-9999.0,'111111111,111111111,999999991'
BP,ioos:station:wmo:42369:4,2021-09-01T07:00:00Z,27.2139,-90.2847,1343.0,11.6,27.7,-9999.0,'111111111,111111111,999999991'
BP,ioos:station:wmo:42369:4,2021-09-01T07:20:00Z,27.2139,-90.2848,1343.0,10.1,32.9,-9999.0,'111111111,111111111,999999991'
BP,ioos:station:wmo:42369:4,2021-09-01T07:40:00Z,27.2139,-90.2848,1343.0,9.2,44.1,-9999.0,'111111111,111111111,999999991'
BP,ioos:station:wmo:42369:4,2021-09-01T08:00:00Z,27.2139,-90.2848,1343.0,8.1,47.5,-9999.0,'111111111,111111111,999999991'
BP,ioos:station:wmo:42369:4,2021-09-01T08:20:00Z,27.2140,-90.2851,1343.0,7.4,46.1,-9999.0,'111111111,111111111,999999991'
BP,ioos:station:wmo:42369:4,2021-09-01T08:40:00Z,27.2141,-90.2851,1343.0,8.9,50.0,-9999.0,'111111111,111111111,999999991'
BP,ioos:station:wmo:42369:4,2021-09-01T09:00:00Z,27.2141,-90.2851,1343.0,7.0,50.8,-9999.0,'111111111,111111111,999999991'
BP,ioos:station:wmo:42369:4,2021-09-01T09:20:00Z,27.2142,-90.2851,1343.0,7.4,51.6,-9999.0,'111111111,111111111,999999991'
BP,ioos:station:wmo:42369:4,2021-09-01T09:40:00Z,27.2142,-90.2851,1343.0,9.3,57.3,-9999.0,'111111111,111111111,999999991'
BP,ioos:station:wmo:42369:4,2021-09-01T10:00:00Z,27.2142,-90.2851,1343.0,8.7,58.1,-9999.0,'111111111,111111111,999999991'
BP,ioos:station:wmo:42369:4,2021-09-01T10:20:00Z,27.2144,-90.2851,1343.0,8.1,53.6,-9999.0,'111111111,111111111,999999991'
BP,ioos:station:wmo:42369:4,2021-09-01T10:40:00Z,27.2144,-90.2851,1343.0,9.0,50.8,-9999.0,'111111111,111111111,999999991'
BP,ioos:station:wmo:42369:4,2021-09-01T11:00:00Z,27.2144,-90.2851,1343.0,8.0,62.5,-9999.0,'111111111,111111111,999999991'
BP,ioos:station:wmo:42369:4,2021-09-01T11:20:00Z,27.2145,-90.2850,1343.0,7.8,59.2,-9999.0,'111111111,111111111,999999991'
BP,ioos:station:wmo:42369:4,2021-09-01T11:40:00Z,27.2145,-90.2850,1343.0,9.9,56.1,-9999.0,'111111111,111111111,999999991'
BP,ioos:station:wmo:42369:4,2021-09-01T12:00:00Z,27.2145,-90.2850,1343.0,9.2,63.4,-9999.0,'111111111,111111111,999999991'
BP,ioos:station:wmo:42369:4,2021-09-01T12:20:00Z,27.2142,-90.2851,1343.0,8.1,72.7,-9999.0,'111111111,111111111,999999991'
BP,ioos:station:wmo:42369:4,2021-09-01T12:40:00Z,27.2142,-90.2851,1343.0,8.5,76.5,-9999.0,'111111111,111111111,999999991'
BP,ioos:station:wmo:42369:4,2021-09-01T13:00:00Z,27.2142,-90.2851,1343.0,8.3,74.6,-9999.0,'111111111,111111111,999999991'
BP,ioos:station:wmo:42369:4,2021-09-01T13:20:00Z,27.2148,-90.2844,1343.0,7.6,75.6,-9999.0,'111111111,111111111,999999991'
BP,ioos:station:wmo:42369:4,2021-09-01T13:40:00Z,27.2144,-90.2851,1343.0,7.2,84.4,-9999.0,'111111111,111111111,999999991'
BP,ioos:station:wmo:42369:4,2021-09-01T14:00:00Z,27.2144,-90.2851,1343.0,7.6,77.8,-9999.0,'111111111,111111111,999999991'
BP,ioos:station:wmo:42369:4,2021-09-01T14:20:00Z,27.2144,-90.2851,1343.0,7.4,73.5,-9999.0,'111111111,111111111,999999991'
BP,ioos:station:wmo:42369:4,2021-09-01T14:40:00Z,27.2149,-90.2843,1343.0,8.6,72.4,-9999.0,'111111111,111111111,999999991'
BP,ioos:station:wmo:42369:4,2021-09-01T15:00:00Z,27.2149,-90.2843,1343.0,7.3,77.3,-9999.0,'111111111,111111111,999999991'
BP,ioos:station:wmo:42369:4,2021-09-01T15:20:00Z,27.2150,-90.2841,1343.0,8.0,82.8,-9999.0,'111111111,111111111,999999991'
BP,ioos:station:wmo:42369:4,2021-09-01T15:40:00Z,27.2150,-90.2841,1343.0,6.9,90.0,-9999.0,'111111111,111111111,999999991'
BP,ioos:station:wmo:42369:4,2021-09-01T16:00:00Z,27.2150,-90.2841,1343.0,6.7,90.0,-9999.0,'111111111,111111111,999999991'
BP,ioos:station:wmo:42369:4,2021-09-01T16:20:00Z,27.2151,-90.2839,1343.0,5.5,89.0,-9999.0,'111111111,111111111,999999991'
BP,ioos:station:wmo:42369:4,2021-09-01T16:40:00Z,27.2151,-90.2839,1343.0,6.2,103.1,-9999.0,'111111111,111111111,999999991'
BP,ioos:station:wmo:42369:4,2021-09-01T17:00:00Z,27.2151,-90.2839,1343.0,6.3,100.1,-9999.0,'111111111,111111111,999999991'
BP,ioos:station:wmo:42369:4,2021-09-01T17:20:00Z,27.2151,-90.2839,1343.0,7.0,95.7,-9999.0,'111111111,111111111,999999991'
BP,ioos:station:wmo:42369:4,2021-09-01T17:40:00Z,27.2151,-90.2839,1343.0,6.9,87.5,-9999.0,'111111111,111111111,999999991'
BP,ioos:station:wmo:42369:4,2021-09-01T18:00:00Z,27.2151,-90.2839,1343.0,4.9,95.8,-9999.0,'111111111,111111111,999999991'
BP,ioos:station:wmo:42369:4,2021-09-01T18:20:00Z,27.2151,-90.2837,1343.0,5.5,108.1,-9999.0,'111111111,111111111,999999991'
BP,ioos:station:wmo:42369:4,2021-09-01T18:40:00Z,27.2151,-90.2837,1343.0,5.9,96.8,-9999.0,'111111111,111111111,999999991'
BP,ioos:station:wmo:42369:4,2021-09-01T19:00:00Z,27.2151,-90.2837,1343.0,6.7,102.0,-9999.0,'111111111,111111111,999999991'
BP,ioos:station:wmo:42369:4,2021-09-01T19:20:00Z,27.2151,-90.2834,1343.0,5.1,146.9,-9999.0,'111111111,111111111,999999991'
BP,ioos:station:wmo:42369:4,2021-09-01T19:40:00Z,27.2151,-90.2834,1343.0,6.2,148.9,-9999.0,'111111111,111111111,999999991'
BP,ioos:station:wmo:42369:4,2021-09-01T20:00:00Z,27.2151,-90.2834,1343.0,5.9,163.1,-9999.0,'111111111,111111111,999999991'
BP,ioos:station:wmo:42369:4,2021-09-01T20:20:00Z,27.2151,-90.2833,1343.0,6.5,166.6,-9999.0,'111111111,111111111,999999991'
BP,ioos:station:wmo:42369:4,2021-09-01T20:40:00Z,27.2151,-90.2832,1343.0,7.5,176.2,-9999.0,'111111111,111111111,999999991'
BP,ioos:station:wmo:42369:4,2021-09-01T21:00:00Z,27.2151,-90.2831,1343.0,6.0,191.5,-9999.0,'111111111,111111111,999999991'
BP,ioos:station:wmo:42369:4,2021-09-01T21:20:00Z,27.2151,-90.2831,1343.0,4.7,198.4,-9999.0,'111111111,111111111,999999991'
BP,ioos:station:wmo:42369:4,2021-09-01T21:40:00Z,27.2151,-90.2831,1343.0,5.4,197.1,-9999.0,'111111111,111111111,999999991'
BP,ioos:station:wmo:42369:4,2021-09-01T22:00:00Z,27.2149,-90.2827,1343.0,7.4,205.5,-9999.0,'111111111,111111111,999999991'
BP,ioos:station:wmo:42369:4,2021-09-01T22:20:00Z,27.2149,-90.2827,1343.0,6.6,210.8,-9999.0,'111111111,111111111,999999991'
BP,ioos:station:wmo:42369:4,2021-09-01T22:40:00Z,27.2149,-90.2827,1343.0,6.4,228.8,-9999.0,'111111111,111111111,999999991'
BP,ioos:station:wmo:42369:4,2021-09-01T23:00:00Z,27.2149,-90.2827,1343.0,5.4,222.0,-9999.0,'111111111,111111111,999999991'
BP,ioos:station:wmo:42369:4,2021-09-01T23:20:00Z,27.2149,-90.2827,1343.0,7.2,215.4,-9999.0,'111111111,111111111,999999991'
BP,ioos:station:wmo:42369:4,2021-09-01T23:40:00Z,27.2149,-90.2827,1343.0,5.4,215.2,-9999.0,'111111111,111111111,999999991'
BP,ioos:station:wmo:42369:4,2021-09-02T00:00:00Z,27.2148,-90.2827,1343.0,5.3,213.4,-9999.0,'111111111,111111111,999999991'
BP,ioos:station:wmo:42369:4,2021-09-02T00:20:00Z,27.2148,-90.2828,1343.0,6.1,219.7,-9999.0,'111111111,111111111,999999991'
BP,ioos:station:wmo:42369:4,2021-09-02T00:40:00Z,27.2148,-90.2828,1343.0,5.4,237.8,-9999.0,'111111111,111111111,999999991'
BP,ioos:station:wmo:42369:4,2021-09-02T01:00:00Z,27.2148,-90.2828,1343.0,5.6,232.3,-9999.0,'111111111,111111111,999999991'
BP,ioos:station:wmo:42369:4,2021-09-02T01:20:00Z,27.2147,-90.2828,1343.0,5.4,241.0,-9999.0,'111111111,111111111,999999991'
BP,ioos:station:wmo:42369:4,2021-09-02T01:40:00Z,27.2147,-90.2828,1343.0,5.9,263.2,-9999.0,'111111111,111111111,999999991'
BP,ioos:station:wmo:42369:4,2021-09-02T02:00:00Z,27.2147,-90.2828,1343.0,6.6,270.9,-9999.0,'111111111,111111111,999999991'
BP,ioos:station:wmo:42369:4,2021-09-02T02:20:00Z,27.2146,-90.2828,1343.0,8.6,293.3,-9999.0,'111111111,111111111,999999991'
BP,ioos:station:wmo:42369:4,2021-09-02T02:40:00Z,27.2146,-90.2828,1343.0,6.8,295.1,-9999.0,'111111111,111111111,999999991'
BP,ioos:station:wmo:42369:4,2021-09-02T03:00:00Z,27.2146,-90.2828,1343.0,8.0,292.1,-9999.0,'111111111,111111111,999999991'
BP,ioos:station:wmo:42369:4,2021-09-02T03:20:00Z,27.2145,-90.2828,1343.0,6.5,304.9,-9999.0,'111111111,111111111,999999991'
BP,ioos:station:wmo:42369:4,2021-09-02T03:40:00Z,27.2145,-90.2828,1343.0,7.2,300.1,-9999.0,'111111111,111111111,999999991'
BP,ioos:station:wmo:42369:4,2021-09-02T04:00:00Z,27.2145,-90.2828,1343.0,6.0,289.3,-9999.0,'111111111,111111111,999999991'
BP,ioos:station:wmo:42369:4,2021-09-02T04:20:00Z,27.2144,-90.2829,1343.0,5.5,308.3,-9999.0,'111111111,111111111,999999991'
BP,ioos:station:wmo:42369:4,2021-09-02T04:40:00Z,27.2144,-90.2829,1343.0,5.8,301.0,-9999.0,'111111111,111111111,999999991'
BP,ioos:station:wmo:42369:4,2021-09-02T05:00:00Z,27.2144,-90.2829,1343.0,7.5,310.7,-9999.0,'111111111,111111111,999999991'
BP,ioos:station:wmo:42369:4,2021-09-02T05:20:00Z,27.2144,-90.2832,1343.0,6.0,319.1,-9999.0,'111111111,111111111,999999991'
BP,ioos:station:wmo:42369:4,2021-09-02T05:40:00Z,27.2144,-90.2832,1343.0,7.3,325.7,-9999.0,'111111111,111111111,999999991'
BP,ioos:station:wmo:42369:4,2021-09-02T06:00:00Z,27.2144,-90.2832,1343.0,6.9,332.3,-9999.0,'111111111,111111111,999999991'
BP,ioos:station:wmo:42369:4,2021-09-02T06:20:00Z,27.2144,-90.2833,1343.0,5.7,338.4,-9999.0,'111111111,111111111,999999991'
BP,ioos:station:wmo:42369:4,2021-09-02T06:40:00Z,27.2144,-90.2833,1343.0,5.3,1.1,-9999.0,'111111111,111111111,999999991'
BP,ioos:station:wmo:42369:4,2021-09-02T07:00:00Z,27.2144,-90.2832,1343.0,6.5,1.8,-9999.0,'111111111,111111111,999999991'
BP,ioos:station:wmo:42369:4,2021-09-02T07:20:00Z,27.2144,-90.2833,1343.0,5.5,11.5,-9999.0,'111111111,111111111,999999991'
BP,ioos:station:wmo:42369:4,2021-09-02T07:40:00Z,27.2145,-90.2834,1343.0,6.0,29.1,-9999.0,'111111111,111111111,999999991'
BP,ioos:station:wmo:42369:4,2021-09-02T08:00:00Z,27.2145,-90.2834,1343.0,6.5,23.4,-9999.0,'111111111,111111111,999999991'
BP,ioos:station:wmo:42369:4,2021-09-02T08:20:00Z,27.2145,-90.2835,1343.0,7.7,25.2,-9999.0,'111111111,111111111,999999991'
BP,ioos:station:wmo:42369:4,2021-09-02T08:40:00Z,27.2145,-90.2835,1343.0,7.8,46.0,-9999.0,'111111111,111111111,999999991'
BP,ioos:station:wmo:42369:4,2021-09-02T09:00:00Z,27.2146,-90.2834,1343.0,7.0,58.3,-9999.0,'111111111,111111111,999999991'
BP,ioos:station:wmo:42369:4,2021-09-02T09:20:00Z,27.2146,-90.2834,1343.0,6.1,61.8,-9999.0,'111111111,111111111,999999991'
BP,ioos:station:wmo:42369:4,2021-09-02T09:40:00Z,27.2146,-90.2834,1343.0,4.9,63.4,-9999.0,'111111111,111111111,999999991'
BP,ioos:station:wmo:42369:4,2021-09-02T10:00:00Z,27.2147,-90.2834,1343.0,5.3,81.3,-9999.0,'111111111,111111111,999999991'
BP,ioos:station:wmo:42369:4,2021-09-02T10:20:00Z,27.2147,-90.2834,1343.0,7.5,64.8,-9999.0,'111111111,111111111,999999991'
BP,ioos:station:wmo:42369:4,2021-09-02T10:40:00Z,27.2147,-90.2834,1343.0,8.0,59.3,-9999.0,'111111111,111111111,999999991'
BP,ioos:station:wmo:42369:4,2021-09-02T11:00:00Z,27.2149,-90.2834,1343.0,6.1,80.5,-9999.0,'111111111,111111111,999999991'
BP,ioos:station:wmo:42369:4,2021-09-02T11:20:00Z,27.2149,-90.2834,1343.0,7.2,49.0,-9999.0,'111111111,111111111,999999991'
BP,ioos:station:wmo:42369:4,2021-09-02T11:40:00Z,27.2150,-90.2832,1343.0,5.6,67.1,-9999.0,'111111111,111111111,999999991'
BP,ioos:station:wmo:42369:4,2021-09-02T12:00:00Z,27.2150,-90.2832,1343.0,7.0,86.7,-9999.0,'111111111,111111111,999999991'
BP,ioos:station:wmo:42369:4,2021-09-02T12:20:00Z,27.2150,-90.2832,1343.0,4.3,71.1,-9999.0,'111111111,111111111,999999991'
BP,ioos:station:wmo:42369:4,2021-09-02T12:40:00Z,27.2150,-90.2832,1343.0,6.0,79.4,-9999.0,'111111111,111111111,999999991'
BP,ioos:station:wmo:42369:4,2021-09-02T13:00:00Z,27.2151,-90.2831,1343.0,5.8,70.9,-9999.0,'111111111,111111111,999999991'
BP,ioos:station:wmo:42369:4,2021-09-02T13:20:00Z,27.2151,-90.2831,1343.0,6.7,78.0,-9999.0,'111111111,111111111,999999991'
BP,ioos:station:wmo:42369:4,2021-09-02T13:40:00Z,27.2151,-90.2830,1343.0,7.0,100.7,-9999.0,'111111111,111111111,999999991'
BP,ioos:station:wmo:42369:4,2021-09-02T14:00:00Z,27.2151,-90.2830,1343.0,5.1,91.1,-9999.0,'111111111,111111111,999999991'
BP,ioos:station:wmo:42369:4,2021-09-02T14:20:00Z,27.2152,-90.2829,1343.0,6.1,108.1,-9999.0,'111111111,111111111,999999991'
BP,ioos:station:wmo:42369:4,2021-09-02T14:40:00Z,27.2152,-90.2829,1343.0,7.5,125.8,-9999.0,'111111111,111111111,999999991'
BP,ioos:station:wmo:42369:4,2021-09-02T15:00:00Z,27.2152,-90.2829,1343.0,10.1,131.0,-9999.0,'111111111,111111111,999999991'
BP,ioos:station:wmo:42369:4,2021-09-02T15:20:00Z,27.2152,-90.2825,1343.0,10.8,123.0,-9999.0,'111111111,111111111,999999991'
BP,ioos:station:wmo:42369:4,2021-09-02T15:40:00Z,27.2152,-90.2825,1343.0,11.0,125.4,-9999.0,'111111111,111111111,999999991'
BP,ioos:station:wmo:42369:4,2021-09-02T16:00:00Z,27.2152,-90.2825,1343.0,11.0,145.7,-9999.0,'111111111,111111111,999999991'
BP,ioos:station:wmo:42369:4,2021-09-02T16:20:00Z,27.2152,-90.2825,1343.0,12.9,155.2,-9999.0,'111111111,111111111,999999991'
BP,ioos:station:wmo:42369:4,2021-09-02T16:40:00Z,27.2153,-90.2819,1343.0,14.3,162.1,-9999.0,'111111111,111111111,999999991'
BP,ioos:station:wmo:42369:4,2021-09-02T17:00:00Z,27.2153,-90.2819,1343.0,15.5,161.2,-9999.0,'111111111,111111111,999999991'
BP,ioos:station:wmo:42369:4,2021-09-02T17:20:00Z,27.2153,-90.2819,1343.0,15.6,163.2,-9999.0,'111111111,111111111,999999991'
BP,ioos:station:wmo:42369:4,2021-09-02T17:40:00Z,27.2154,-90.2812,1343.0,17.8,169.3,-9999.0,'111111111,111111111,999999991'
BP,ioos:station:wmo:42369:4,2021-09-02T18:00:00Z,27.2154,-90.2810,1343.0,17.6,173.2,-9999.0,'111111111,111111111,999999991'
BP,ioos:station:wmo:42369:4,2021-09-02T18:20:00Z,27.2154,-90.2809,1343.0,17.7,178.7,-9999.0,'111111111,111111111,999999991'
BP,ioos:station:wmo:42369:4,2021-09-02T18:40:00Z,27.2154,-90.2807,1343.0,18.8,178.5,-9999.0,'111111111,111111111,999999991'
BP,ioos:station:wmo:42369:4,2021-09-02T19:00:00Z,27.2154,-90.2807,1343.0,19.1,182.7,-9999.0,'111111111,111111111,999999991'
BP,ioos:station:wmo:42369:4,2021-09-02T19:20:00Z,27.2154,-90.2807,1343.0,19.6,185.0,-9999.0,'111111111,111111111,999999991'
BP,ioos:station:wmo:42369:4,2021-09-02T19:40:00Z,27.2153,-90.2799,1343.0,18.4,187.2,-9999.0,'111111111,111111111,999999991'
BP,ioos:station:wmo:42369:4,2021-09-02T20:00:00Z,27.2153,-90.2798,1343.0,16.6,190.4,-9999.0,'111111111,111111111,999999991'
BP,ioos:station:wmo:42369:4,2021-09-02T20:20:00Z,27.2152,-90.2796,1343.0,16.2,194.6,-9999.0,'111111111,111111111,999999991'
BP,ioos:station:wmo:42369:4,2021-09-02T20:40:00Z,27.2152,-90.2796,1343.0,15.2,199.1,-9999.0,'111111111,111111111,999999991'
BP,ioos:station:wmo:42369:4,2021-09-02T21:00:00Z,27.2152,-90.2796,1343.0,14.8,199.3,-9999.0,'111111111,111111111,999999991'
BP,ioos:station:wmo:42369:4,2021-09-02T21:20:00Z,27.2148,-90.2785,1343.0,14.2,200.6,-9999.0,'111111111,111111111,999999991'
BP,ioos:station:wmo:42369:4,2021-09-02T21:40:00Z,27.2148,-90.2785,1343.0,15.3,205.9,-9999.0,'111111111,111111111,999999991'
BP,ioos:station:wmo:42369:4,2021-09-02T22:00:00Z,27.2148,-90.2785,1343.0,16.5,211.9,-9999.0,'111111111,111111111,999999991'
BP,ioos:station:wmo:42369:4,2021-09-02T22:20:00Z,27.2147,-90.2783,1343.0,15.4,214.9,-9999.0,'111111111,111111111,999999991'
BP,ioos:station:wmo:42369:4,2021-09-02T22:40:00Z,27.2147,-90.2782,1343.0,15.6,224.5,-9999.0,'111111111,111111111,999999991'
BP,ioos:station:wmo:42369:4,2021-09-02T23:00:00Z,27.2147,-90.2782,1343.0,17.3,232.5,-9999.0,'111111111,111111111,999999991'
BP,ioos:station:wmo:42369:4,2021-09-02T23:20:00Z,27.2147,-90.2782,1343.0,16.9,233.2,-9999.0,'111111111,111111111,999999991'
BP,ioos:station:wmo:42369:4,2021-09-02T23:40:00Z,27.2145,-90.2778,1343.0,16.9,236.3,-9999.0,'111111111,111111111,999999991'
BP,ioos:station:wmo:42369:4,2021-09-03T00:00:00Z,27.2145,-90.2778,1343.0,15.1,244.1,-9999.0,'111111111,111111111,999999991'
BP,ioos:station:wmo:42369:4,2021-09-03T00:20:00Z,27.2144,-90.2777,1343.0,14.7,239.8,-9999.0,'111111111,111111111,999999991'
BP,ioos:station:wmo:42369:4,2021-09-03T00:40:00Z,27.2143,-90.2778,1343.0,15.5,239.8,-9999.0,'111111111,111111111,999999991'
BP,ioos:station:wmo:42369:4,2021-09-03T01:00:00Z,27.2143,-90.2778,1343.0,13.1,240.3,-9999.0,'111111111,111111111,999999991'
BP,ioos:station:wmo:42369:4,2021-09-03T01:20:00Z,27.2143,-90.2781,1343.0,13.1,245.2,-9999.0,'111111111,111111111,999999991'
BP,ioos:station:wmo:42369:4,2021-09-03T01:40:00Z,27.2143,-90.2781,1343.0,12.9,246.8,-9999.0,'111111111,111111111,999999991'
BP,ioos:station:wmo:42369:4,2021-09-03T02:00:00Z,27.2143,-90.2782,1343.0,11.9,250.8,-9999.0,'111111111,111111111,999999991'
BP,ioos:station:wmo:42369:4,2021-09-03T02:20:00Z,27.2143,-90.2784,1343.0,12.1,251.7,-9999.0,'111111111,111111111,999999991'
BP,ioos:station:wmo:42369:4,2021-09-03T02:40:00Z,27.2142,-90.2787,1343.0,11.1,258.6,-9999.0,'111111111,111111111,999999991'
BP,ioos:station:wmo:42369:4,2021-09-03T03:00:00Z,27.2142,-90.2787,1343.0,10.3,256.0,-9999.0,'111111111,111111111,999999991'
BP,ioos:station:wmo:42369:4,2021-09-03T03:20:00Z,27.2143,-90.2791,1343.0,9.9,264.8,-9999.0,'111111111,111111111,999999991'
BP,ioos:station:wmo:42369:4,2021-09-03T03:40:00Z,27.2143,-90.2791,1343.0,9.9,284.0,-9999.0,'111111111,111111111,999999991'
BP,ioos:station:wmo:42369:4,2021-09-03T04:00:00Z,27.2143,-90.2791,1343.0,9.8,287.1,-9999.0,'111111111,111111111,999999991'
BP,ioos:station:wmo:42369:4,2021-09-03T04:20:00Z,27.2143,-90.2791,1343.0,11.0,282.0,-9999.0,'111111111,111111111,999999991'
BP,ioos:station:wmo:42369:4,2021-09-03T04:40:00Z,27.2144,-90.2797,1343.0,11.2,291.5,-9999.0,'111111111,111111111,999999991'
BP,ioos:station:wmo:42369:4,2021-09-03T05:00:00Z,27.2144,-90.2797,1343.0,11.6,294.4,-9999.0,'111111111,111111111,999999991'
BP,ioos:station:wmo:42369:4,2021-09-03T05:20:00Z,27.2144,-90.2801,1343.0,11.0,294.7,-9999.0,'111111111,111111111,999999991'
BP,ioos:station:wmo:42369:4,2021-09-03T05:40:00Z,27.2144,-90.2801,1343.0,9.7,298.9,-9999.0,'111111111,111111111,999999991'
BP,ioos:station:wmo:42369:4,2021-09-03T06:00:00Z,27.2144,-90.2801,1343.0,8.3,298.7,-9999.0,'111111111,111111111,999999991'
BP,ioos:station:wmo:42369:4,2021-09-03T06:20:00Z,27.2144,-90.2801,1343.0,10.0,316.2,-9999.0,'111111111,111111111,999999991'
BP,ioos:station:wmo:42369:4,2021-09-03T06:40:00Z,27.2144,-90.2801,1343.0,10.5,325.1,-9999.0,'111111111,111111111,999999991'
BP,ioos:station:wmo:42369:4,2021-09-03T07:00:00Z,27.2144,-90.2806,1343.0,6.8,328.9,-9999.0,'111111111,111111111,999999991'
BP,ioos:station:wmo:42369:4,2021-09-03T07:20:00Z,27.2144,-90.2807,1343.0,6.9,324.5,-9999.0,'111111111,111111111,999999991'
BP,ioos:station:wmo:42369:4,2021-09-03T07:40:00Z,27.2144,-90.2807,1343.0,7.0,329.0,-9999.0,'111111111,111111111,999999991'
BP,ioos:station:wmo:42369:4,2021-09-03T08:00:00Z,27.2144,-90.2807,1343.0,8.5,335.8,-9999.0,'111111111,111111111,999999991'
BP,ioos:station:wmo:42369:4,2021-09-03T08:20:00Z,27.2146,-90.2810,1343.0,8.6,2.7,-9999.0,'111111111,111111111,999999991'
BP,ioos:station:wmo:42369:4,2021-09-03T08:40:00Z,27.2146,-90.2810,1343.0,8.2,12.0,-9999.0,'111111111,111111111,999999991'
BP,ioos:station:wmo:42369:4,2021-09-03T09:00:00Z,27.2146,-90.2810,1343.0,8.1,16.4,-9999.0,'111111111,111111111,999999991'
BP,ioos:station:wmo:42369:4,2021-09-03T09:20:00Z,27.2147,-90.2810,1343.0,8.7,14.0,-9999.0,'111111111,111111111,999999991'
BP,ioos:station:wmo:42369:4,2021-09-03T09:40:00Z,27.2147,-90.2810,1343.0,7.6,6.8,-9999.0,'111111111,111111111,999999991'
BP,ioos:station:wmo:42369:4,2021-09-03T10:00:00Z,27.2147,-90.2810,1343.0,6.7,24.7,-9999.0,'111111111,111111111,999999991'
BP,ioos:station:wmo:42369:4,2021-09-03T10:20:00Z,27.2147,-90.2810,1343.0,8.2,28.4,-9999.0,'111111111,111111111,999999991'
BP,ioos:station:wmo:42369:4,2021-09-03T10:40:00Z,27.2148,-90.2811,1343.0,7.2,23.0,-9999.0,'111111111,111111111,999999991'
BP,ioos:station:wmo:42369:4,2021-09-03T11:00:00Z,27.2148,-90.2811,1343.0,7.1,30.5,-9999.0,'111111111,111111111,999999991'
BP,ioos:station:wmo:42369:4,2021-09-03T11:20:00Z,27.2148,-90.2811,1343.0,7.0,32.8,-9999.0,'111111111,111111111,999999991'
BP,ioos:station:wmo:42369:4,2021-09-03T11:40:00Z,27.2148,-90.2810,1343.0,7.9,46.0,-9999.0,'111111111,111111111,999999991'
BP,ioos:station:wmo:42369:4,2021-09-03T12:00:00Z,27.2149,-90.2810,1343.0,6.9,56.3,-9999.0,'111111111,111111111,999999991'
BP,ioos:station:wmo:42369:4,2021-09-03T12:20:00Z,27.2149,-90.2810,1343.0,7.6,52.5,-9999.0,'111111111,111111111,999999991'
BP,ioos:station:wmo:42369:4,2021-09-03T12:40:00Z,27.2149,-90.2808,1343.0,4.3,48.8,-9999.0,'111111111,111111111,999999991'
BP,ioos:station:wmo:42369:4,2021-09-03T13:00:00Z,27.2149,-90.2808,1343.0,5.2,69.8,-9999.0,'111111111,111111111,999999991'
BP,ioos:station:wmo:42369:4,2021-09-03T13:20:00Z,27.2149,-90.2807,1343.0,5.0,53.1,-9999.0,'111111111,111111111,999999991'
BP,ioos:station:wmo:42369:4,2021-09-03T13:40:00Z,27.2149,-90.2807,1343.0,2.2,24.2,-9999.0,'111331111,111111111,999999991'
BP,ioos:station:wmo:42369:4,2021-09-03T14:00:00Z,27.2149,-90.2804,1343.0,2.0,72.5,-9999.0,'111331111,111111111,999999991'
BP,ioos:station:wmo:42369:4,2021-09-03T14:20:00Z,27.2149,-90.2804,1343.0,3.0,50.4,-9999.0,'111331111,111111111,999999991'
BP,ioos:station:wmo:42369:4,2021-09-03T14:40:00Z,27.2149,-90.2804,1343.0,3.6,91.6,-9999.0,'111111111,111111111,999999991'
BP,ioos:station:wmo:42369:4,2021-09-03T15:00:00Z,27.2149,-90.2799,1343.0,3.6,129.4,-9999.0,'111111111,111111111,999999991'
BP,ioos:station:wmo:42369:4,2021-09-03T15:20:00Z,27.2149,-90.2799,1343.0,3.9,131.9,-9999.0,'111111111,111111111,999999991'
BP,ioos:station:wmo:42369:4,2021-09-03T15:40:00Z,27.2149,-90.2799,1343.0,4.5,150.6,-9999.0,'111111111,111111111,999999991'